EW4074 Weather Reports


Display with metric or nautical units.
time (UTC)temp
F
wind
direction
speed
MPH
gust
MPH
rain 1hr
in
rain 24hr
in
rain mn
in
humidity
%
barometer
mb
20260502185313 56 266 3.0 10.0 0.00 0.00 0.00 50 1041.2
20260502184810 56 153 3.0 7.0 0.00 0.00 0.00 51 1041.3
20260502184309 55 242 2.0 7.0 0.00 0.00 0.00 53 1041.3
20260502183812 55 144 2.0 8.0 0.00 0.00 0.00 51 1041.3
20260502183310 55 102 2.0 8.0 0.00 0.00 0.00 51 1041.5
20260502182809 56 273 1.0 7.0 0.00 0.00 0.00 51 1041.5
20260502182309 56 182 2.0 7.0 0.00 0.00 0.00 54 1041.5
20260502182034 55 131 1.0 6.0 0.00 0.00 0.00 52 1041.6
20260502181307 55 300 1.0 4.0 0.00 0.00 0.00 52 1041.6
20260502181025 55 296 2.0 5.0 0.00 0.00 0.00 56 1041.6
20260502180755 55 150 2.0 5.0 0.00 0.00 0.00 55 1041.8
20260502170235 54 268 1.0 5.0 0.00 0.00 0.00 56 1042.1
20260502164235 53 162 1.0 5.0 0.00 0.00 0.00 57 1042.1
20260502163734 54 276 1.0 5.0 0.00 0.00 0.00 55 1042.1
20260502163234 53 142 1.0 4.0 0.00 0.00 0.00 61 1042.3
20260502162953 53 85 1.0 5.0 0.00 0.00 0.00 57 1042.3
20260502162235 53 355 2.0 8.0 0.00 0.00 0.00 56 1042.3
20260502161951 53 251 3.0 9.0 0.00 0.00 0.00 56 1042.3
20260502161227 53 240 2.0 7.0 0.00 0.00 0.00 59 1042.3
20260502160715 53 215 2.0 8.0 0.00 0.00 0.00 55 1042.3
20260502160431 53 284 1.0 8.0 0.00 0.00 0.00 56 1042.5
20260502152126 53 138 2.0 8.0 0.00 0.00 0.00 59 1042.8
20260502151621 52 71 2.0 8.0 0.00 0.00 0.00 58 1042.8
20260502151110 52 244 2.0 11.0 0.00 0.00 0.00 61 1042.8
20260502150608 51 145 3.0 11.0 0.00 0.00 0.00 62 1042.8
20260502150553 51 239 3.0 13.0 0.00 0.00 0.00 61 1042.8
20260502130611 48 144 2.0 7.0 0.00 0.00 0.00 71 1042.7
20260502123810 47 269 3.0 9.0 0.00 0.00 0.00 72 1042.6
20260502123304 47 216 3.0 10.0 0.00 0.00 0.00 73 1042.7
20260502123027 47 215 3.0 11.0 0.00 0.00 0.00 74 1042.7
20260502122256 46 248 4.0 12.0 0.00 0.00 0.00 75 1042.7
20260502121750 46 256 4.0 14.0 0.00 0.00 0.00 74 1042.4
20260502121244 46 240 4.0 14.0 0.00 0.00 0.00 75 1042.4
20260502120738 45 251 3.0 8.0 0.00 0.00 0.00 76 1042.4
20260502120232 45 219 2.0 7.0 0.00 0.00 0.00 77 1042.6
20260502115722 45 234 2.0 7.0 0.00 0.00 0.00 77 1042.6
20260502115443 45 236 3.0 9.0 0.00 0.00 0.00 77 1042.6
20260502114710 44 238 2.0 9.0 0.00 0.00 0.00 78 1042.8
20260502114208 44 229 2.0 7.0 0.00 0.00 0.00 79 1042.8
20260502113928 44 261 1.0 4.0 0.00 0.00 0.00 80 1042.8
20260502113157 43 279 1.0 4.0 0.00 0.00 0.00 80 1042.9
20260502112650 43 242 0.0 2.0 0.00 0.00 0.00 81 1042.9
20260502112412 43 181 0.0 2.0 0.00 0.00 0.00 81 1042.9
20260502111638 43 288 0.0 1.0 0.00 0.00 0.00 82 1042.9
20260502111401 42 277 0.0 1.0 0.00 0.00 0.00 82 1042.9
20260502110850 42 242 0.0 1.0 0.00 0.00 0.00 82 1042.9
20260502110121 42 337 0.0 1.0 0.00 0.00 0.00 82 1042.8
20260502105614 42 338 0.0 1.0 0.00 0.00 0.00 82 1042.8
20260502105109 42 269 0.0 1.0 0.00 0.00 0.00 82 1042.8
20260502104558 42 248 0.0 2.0 0.00 0.00 0.00 82 1042.8
20260502104057 42 268 0.0 4.0 0.00 0.00 0.00 82 1042.8
20260502103550 42 250 0.0 4.0 0.00 0.00 0.00 82 1042.6
20260502103045 42 234 1.0 3.0 0.00 0.00 0.00 82 1042.6
20260502102538 42 240 0.0 3.0 0.00 0.00 0.00 82 1042.6
20260502102033 42 252 0.0 2.0 0.00 0.00 0.00 82 1042.8
20260502101526 42 248 0.0 2.0 0.00 0.00 0.00 81 1042.8
20260502101024 42 242 0.0 2.0 0.00 0.00 0.00 81 1042.8
20260502100524 43 199 0.0 4.0 0.00 0.00 0.00 80 1042.4
20260502091520 44 269 2.0 6.0 0.00 0.00 0.00 79 1042.2
20260502091023 44 238 2.0 7.0 0.00 0.00 0.00 79 1042.2
20260502090521 44 263 2.0 7.0 0.00 0.00 0.00 79 1042.1
20260502071441 47 258 2.0 8.0 0.00 0.00 0.00 76 1041.8
20260502070933 47 221 2.0 8.0 0.00 0.00 0.00 76 1041.8
20260502070426 47 261 2.0 8.0 0.00 0.00 0.00 76 1041.7
20260502065921 47 244 2.0 7.0 0.00 0.00 0.00 76 1041.7
20260502065415 47 220 1.0 7.0 0.00 0.00 0.00 75 1041.7
20260502064904 47 272 2.0 6.0 0.00 0.00 0.00 75 1041.6
20260502064403 48 211 2.0 5.0 0.00 0.00 0.00 74 1041.6
20260502063857 48 300 2.0 8.0 0.00 0.00 0.00 74 1041.6
20260502063614 48 257 1.0 8.0 0.00 0.00 0.00 74 1041.7
20260502062936 48 250 1.0 4.0 0.00 0.00 0.00 75 1041.7
20260502061834 48 223 2.0 8.0 0.00 0.00 0.00 74 1041.8
20260502061809 48 110 2.0 8.0 0.00 0.00 0.00 75 1041.8
20260502060822 48 242 1.0 7.0 0.00 0.00 0.00 77 1041.8
20260502060315 48 261 0.0 4.0 0.00 0.00 0.00 80 1041.8
20260502055810 48 270 0.0 4.0 0.00 0.00 0.00 80 1041.8
20260502055533 48 250 0.0 1.0 0.00 0.00 0.00 80 1041.8
20260502054758 48 219 0.0 1.0 0.00 0.00 0.00 80 1041.5
20260502054520 49 219 0.0 1.0 0.00 0.00 0.00 79 1041.5
20260502053737 49 218 0.0 1.0 0.00 0.00 0.00 78 1041.5
20260502053239 49 249 0.0 1.0 0.00 0.00 0.00 78 1041.5
20260502052733 50 80 0.0 1.0 0.00 0.00 0.00 78 1041.5
20260502052227 50 288 0.0 3.0 0.00 0.00 0.00 78 1041.5
20260502051721 50 288 0.0 3.0 0.00 0.00 0.00 77 1041.5
20260502051215 51 173 0.0 1.0 0.00 0.00 0.00 77 1041.5
20260502050927 51 229 1.0 2.0 0.00 0.00 0.00 76 1041.5
20260502050157 51 244 2.0 8.0 0.00 0.00 0.00 75 1041.3
20260502045656 51 238 3.0 9.0 0.00 0.00 0.00 75 1041.3
20260502045237 51 248 4.0 10.0 0.00 0.00 0.00 75 1041.3
20260502044138 52 252 3.0 10.0 0.00 0.00 0.00 76 1041.3
20260502043633 52 288 4.0 12.0 0.00 0.00 0.00 75 1041.3
20260502043128 52 293 4.0 12.0 0.00 0.00 0.00 75 1041.1
20260502042616 52 254 3.0 8.0 0.00 0.00 0.00 74 1041.1
20260502042114 52 251 3.0 7.0 0.00 0.00 0.00 74 1040.8
20260502041830 52 256 2.0 7.0 0.00 0.00 0.00 74 1040.8
20260502041103 52 257 2.0 10.0 0.00 0.00 0.00 74 1040.8
20260502040557 52 260 3.0 10.0 0.00 0.00 0.00 73 1040.8
20260502040050 53 288 3.0 11.0 0.00 0.00 0.00 73 1040.8
20260502035544 53 238 3.0 11.0 0.00 0.00 0.00 73 1040.8
20260502035035 53 246 3.0 10.0 0.00 0.00 0.00 74 1040.8
20260502034532 53 265 2.0 11.0 0.00 0.00 0.00 73 1040.8
20260502034026 53 240 2.0 11.0 0.00 0.00 0.00 73 1040.8
20260502033521 53 250 1.0 4.0 0.00 0.00 0.00 73 1040.8
20260502033014 53 257 2.0 7.0 0.00 0.00 0.00 72 1040.8
20260502032508 53 261 2.0 7.0 0.00 0.00 0.00 72 1040.8
20260502032224 53 263 2.0 5.0 0.00 0.00 0.00 73 1040.7
20260502031454 53 255 2.0 6.0 0.00 0.00 0.00 72 1040.7
20260502030950 53 261 2.0 6.0 0.00 0.00 0.00 73 1040.7
20260502030446 53 273 3.0 10.0 0.00 0.00 0.00 73 1040.8
20260502025938 53 306 3.0 10.0 0.00 0.00 0.00 73 1040.8
20260502025434 53 256 3.0 8.0 0.00 0.00 0.00 73 1040.8
20260502025149 53 269 2.0 7.0 0.00 0.00 0.00 74 1040.6
20260502024421 53 243 2.0 6.0 0.00 0.00 0.00 74 1040.6
20260502023911 53 306 2.0 6.0 0.00 0.00 0.00 75 1040.6
20260502023408 53 296 2.0 8.0 0.00 0.00 0.00 75 1040.8
20260502022902 53 272 2.0 8.0 0.00 0.00 0.00 75 1040.8
20260502022356 53 263 2.0 5.0 0.00 0.00 0.00 75 1040.8
20260502021850 53 251 2.0 5.0 0.00 0.00 0.00 74 1040.6
20260502021345 54 227 2.0 6.0 0.00 0.00 0.00 74 1040.6
20260502020838 54 274 3.0 7.0 0.00 0.00 0.00 72 1040.6
20260502020328 55 256 2.0 7.0 0.00 0.00 0.00 70 1040.6
20260502015826 55 259 2.0 7.0 0.00 0.00 0.00 68 1040.6
20260502015321 56 274 3.0 12.0 0.00 0.00 0.00 67 1040.6
20260502014814 56 229 3.0 11.0 0.00 0.00 0.00 66 1040.3
20260502014308 56 265 3.0 11.0 0.00 0.00 0.00 67 1040.3
20260502013804 56 275 2.0 8.0 0.00 0.00 0.00 68 1040.3
20260502013256 55 231 1.0 4.0 0.00 0.00 0.00 72 1039.7
20260502012743 55 259 0.0 3.0 0.00 0.00 0.00 75 1039.7
20260502012244 55 284 0.0 3.0 0.00 0.00 0.00 74 1039.7
20260502011738 54 247 0.0 2.0 0.00 0.00 0.00 76 1039.1
20260502011232 54 234 0.0 0.0 0.00 0.00 0.00 80 1039.1
20260502010727 54 234 0.0 0.0 0.00 0.00 0.00 81 1039.1
20260502010220 55 234 0.0 1.0 0.00 0.00 0.00 78 1038.9
20260502005714 55 234 0.0 1.0 0.00 0.00 0.00 80 1038.9
20260502005200 54 234 0.0 1.0 0.00 0.00 0.00 79 1038.9
20260502004702 54 67 0.0 0.0 0.00 0.00 0.00 80 1038.1
20260502004156 54 67 0.0 0.0 0.00 0.00 0.00 80 1038.1
20260502003652 54 67 0.0 1.0 0.00 0.00 0.00 81 1038.1
20260502003410 55 67 0.0 1.0 0.00 0.00 0.00 82 1038.0
20260502002649 55 30 0.0 1.0 0.00 0.00 0.00 80 1038.0
20260502002149 55 30 0.0 1.0 0.00 0.00 0.00 79 1038.0
20260502001647 55 30 0.0 0.0 0.00 0.00 0.00 79 1037.9
20260502001418 55 30 0.0 0.0 0.00 0.00 0.00 84 1037.9
20260502000646 55 30 0.0 0.0 0.00 0.00 0.00 83 1037.9
20260502000405 55 30 0.0 0.0 0.00 0.00 0.00 85 1038.0
20260501235647 55 30 0.0 0.0 0.00 0.00 0.00 85 1038.0
20260501235150 56 30 0.0 0.0 0.00 0.00 0.00 83 1038.0
20260501234650 56 30 0.0 0.0 0.00 0.00 0.00 81 1038.1
20260501234144 56 30 0.0 1.0 0.00 0.00 0.00 81 1038.1
20260501233632 56 30 0.0 1.0 0.00 0.00 0.00 81 1038.1
20260501233131 56 30 0.0 0.0 0.00 0.00 0.00 79 1037.7
20260501232630 56 42 0.0 0.0 0.00 0.00 0.00 81 1037.7
20260501232131 56 42 0.0 0.0 0.00 0.00 0.00 82 1037.7
20260501231631 57 42 0.0 0.0 0.00 0.00 0.00 84 1037.7
20260501231443 57 42 0.0 0.0 0.00 0.00 0.00 84 1037.7
20260501230355 57 42 0.0 0.0 0.00 0.00 0.00 80 1037.5
20260501225634 57 42 0.0 0.0 0.00 0.00 0.00 76 1037.5
20260501225127 58 42 0.0 0.0 0.00 0.00 0.00 76 1037.5
20260501224616 58 42 0.0 0.0 0.00 0.00 0.00 75 1037.4
20260501224104 59 42 0.0 0.0 0.00 0.00 0.00 74 1037.4
20260501223552 59 42 0.0 0.0 0.00 0.00 0.00 75 1037.5
20260501223038 59 42 0.0 0.0 0.00 0.00 0.00 74 1037.5
20260501222524 60 42 0.0 0.0 0.00 0.00 0.00 71 1037.5
20260501222243 60 42 0.0 1.0 0.00 0.00 0.00 69 1037.5
20260501221955 60 42 0.0 1.0 0.00 0.00 0.00 67 1037.5
20260501221216 60 42 0.0 2.0 0.00 0.00 0.00 65 1037.5
20260501220456 61 82 0.0 1.0 0.00 0.00 0.00 59 1037.5
20260501215951 60 80 0.0 1.0 0.00 0.00 0.00 60 1037.5
20260501215445 60 322 0.0 2.0 0.00 0.00 0.00 66 1037.5
20260501214938 61 322 0.0 2.0 0.00 0.00 0.00 64 1037.6
20260501214433 61 32 0.0 2.0 0.00 0.00 0.00 59 1037.6
20260501213926 62 299 0.0 2.0 0.00 0.00 0.00 55 1037.6
20260501213416 62 286 0.0 3.0 0.00 0.00 0.00 53 1037.5
20260501212914 62 229 1.0 4.0 0.00 0.00 0.00 52 1037.5
20260501212408 62 150 1.0 4.0 0.00 0.00 0.00 51 1037.5
20260501212127 62 155 1.0 4.0 0.00 0.00 0.00 51 1037.4
20260501211356 62 182 1.0 3.0 0.00 0.00 0.00 52 1037.4
20260501211107 62 165 0.0 3.0 0.00 0.00 0.00 50 1037.4
20260501210344 62 161 1.0 3.0 0.00 0.00 0.00 51 1037.2
20260501205834 62 246 2.0 6.0 0.00 0.00 0.00 50 1037.2
20260501205335 62 204 2.0 6.0 0.00 0.00 0.00 51 1037.2
20260501204835 63 125 1.0 4.0 0.00 0.00 0.00 50 1037.3
20260501204334 63 148 1.0 4.0 0.00 0.00 0.00 52 1037.3
20260501203832 63 202 1.0 6.0 0.00 0.00 0.00 52 1037.3
20260501203330 63 158 2.0 8.0 0.00 0.00 0.00 51 1037.5
20260501202830 63 145 2.0 8.0 0.00 0.00 0.00 50 1037.5
20260501202330 63 148 2.0 11.0 0.00 0.00 0.00 51 1037.5
20260501202313 64 128 3.0 11.0 0.00 0.00 0.00 50 1037.7
20260501201330 64 147 4.0 12.0 0.00 0.00 0.00 51 1037.7
20260501200830 64 210 3.0 12.0 0.00 0.00 0.00 48 1037.7
20260501200328 65 166 1.0 7.0 0.00 0.00 0.00 48 1037.9
20260501195832 65 190 2.0 13.0 0.00 0.00 0.00 49 1037.9
20260501195332 65 130 4.0 13.0 0.00 0.00 0.00 48 1037.9
20260501194825 66 219 4.0 14.0 0.00 0.00 0.00 47 1038.1
20260501194314 66 242 4.0 14.0 0.00 0.00 0.00 47 1038.1
20260501193811 67 188 4.0 11.0 0.00 0.00 0.00 46 1038.1
20260501193312 67 131 4.0 11.0 0.00 0.00 0.00 48 1038.1
20260501192811 67 211 4.0 11.0 0.00 0.00 0.00 49 1038.1
20260501192312 66 202 3.0 10.0 0.00 0.00 0.00 49 1038.1
20260501191812 65 239 3.0 7.0 0.00 0.00 0.00 51 1038.5
20260501191311 65 143 3.0 8.0 0.00 0.00 0.00 49 1038.5
20260501190816 65 116 3.0 8.0 0.00 0.00 0.00 49 1038.5
20260501190315 65 138 4.0 8.0 0.00 0.00 0.00 49 1038.7
20260501185810 65 148 4.0 9.0 0.00 0.00 0.00 46 1038.7